Weather reports worldwide

Advertisment
Brindisi, Italy (16320): temperature & dewpoint: 10.07.2018 18:00:00 - 16.07.2018 18:00:00 (CEST)Brindisi, Italy (16320): wind speed: 10.07.2018 18:00:00 - 16.07.2018 18:00:00 (CEST)Brindisi, Italy (16320): wind direction: 10.07.2018 18:00:00 - 16.07.2018 18:00:00 (CEST)Brindisi, Italy (16320): reduced air pressure: 10.07.2018 18:00:00 - 16.07.2018 18:00:00 (CEST)Brindisi, Italy (16320): visibility: 10.07.2018 18:00:00 - 16.07.2018 18:00:00 (CEST)Brindisi, Italy (16320): precipitation: 10.07.2018 18:00:00 - 16.07.2018 18:00:00 (CEST)
Date & Time tt [°C] td [°C] ff [km/h] ff [kn] dd ppp [hPa] vv [km] rr [mm]
16.07.2018 18:00:00 - - - - - - - -
16.07.2018 17:00:00 - - - - - - - -
16.07.2018 16:00:00 30,0 19,0 13 7 ENE - 10 -
16.07.2018 15:00:00 30,0 20,0 15 8 E - 10 -
16.07.2018 14:00:00 29,1 18,8 13 7 ENE 1013,0 10 -
16.07.2018 13:00:00 29,0 20,0 15 8 ENE - 10 -
16.07.2018 12:00:00 28,0 21,0 13 7 NNE - 10 -
16.07.2018 11:00:00 28,5 17,4 13 7 N 1013,8 10 0,0
16.07.2018 10:00:00 28,0 16,0 9 5 NNE - 10 -
16.07.2018 09:00:00 27,0 22,0 8 4 N - 10 -
16.07.2018 08:00:00 25,3 22,7 8 4 NNW 1012,6 10 -
16.07.2018 07:00:00 24,0 22,0 5 3 WNW - 8 -
16.07.2018 06:00:00 23,0 21,0 8 4 WNW - 10 -
16.07.2018 05:00:00 23,0 21,6 9 5 W 1012,9 10 0,0
16.07.2018 04:00:00 23,0 22,0 9 5 W - 10 -
16.07.2018 03:00:00 23,0 21,0 8 4 WNW - 10 -
16.07.2018 02:00:00 23,1 21,0 4 2 NNW 1013,0 10 -
16.07.2018 01:00:00 24,0 22,0 4 2 NNE - 10 -
16.07.2018 00:00:00 25,0 23,0 4 2 W - 10 -
15.07.2018 23:00:00 24,8 22,5 5 3 WSW 1012,7 10 0,0
15.07.2018 22:00:00 25,0 23,0 5 3 NW - 10 -
15.07.2018 21:00:00 26,0 20,0 4 2 NW - 10 -
15.07.2018 20:00:00 26,4 20,6 4 2 NE 1011,9 10 -
15.07.2018 19:00:00 27,0 23,0 11 6 ENE - 10 -
15.07.2018 18:00:00 27,0 23,0 11 6 NE - 10 -
15.07.2018 17:00:00 27,1 22,0 9 5 ENE 1012,2 10 0,0
15.07.2018 16:00:00 27,0 23,0 16 9 NE - 10 -
15.07.2018 15:00:00 27,0 23,0 13 7 NNE - 10 -
15.07.2018 14:00:00 27,0 22,1 15 8 NNE 1013,2 10 -
15.07.2018 13:00:00 27,0 21,0 15 8 NNE - 10 -
15.07.2018 12:00:00 27,0 19,0 15 8 NNE - 10 -
15.07.2018 11:00:00 27,6 19,3 13 7 N 1013,7 10 0,0
15.07.2018 10:00:00 28,0 16,0 9 5 N - 10 -
15.07.2018 09:00:00 27,0 17,0 11 6 NW - 10 -
15.07.2018 08:00:00 25,3 17,6 8 4 WNW 1013,5 10 -
15.07.2018 07:00:00 22,0 15,0 9 5 W - 10 -
15.07.2018 06:00:00 20,0 16,0 9 5 WNW - 10 -
15.07.2018 05:00:00 20,6 16,1 11 6 W 1013,4 10 0,0
15.07.2018 04:00:00 - - - - - - - -
15.07.2018 03:00:00 - - - - - - - -
15.07.2018 02:00:00 22,4 18,6 9 5 W 1014,3 - -
15.07.2018 01:00:00 23,0 21,0 5 3 WSW - 10 -
15.07.2018 00:00:00 24,0 21,0 5 3 NNW - 10 -
14.07.2018 23:00:00 24,2 21,3 15 8 NNW 1014,6 10 0,0
14.07.2018 22:00:00 24,0 21,0 15 8 NNW - 10 -
14.07.2018 21:00:00 24,0 21,0 16 9 NW - 10 -
14.07.2018 20:00:00 24,8 20,9 18 10 NW 1014,5 10 -
14.07.2018 19:00:00 25,0 21,0 22 12 NNW - 10 -
14.07.2018 18:00:00 26,0 21,0 22 12 NNW - 10 -
14.07.2018 17:00:00 26,3 21,0 21 11 NNW 1015,0 10 0,0
14.07.2018 16:00:00 27,0 20,0 22 12 NNW - 10 -
14.07.2018 15:00:00 27,0 21,0 24 13 NW - 10 -
14.07.2018 14:00:00 26,9 21,5 26 14 NW 1016,1 10 -
14.07.2018 13:00:00 27,0 21,0 26 14 NW - 10 -
14.07.2018 12:00:00 27,0 22,0 22 12 NW - 10 -
14.07.2018 11:00:00 26,9 20,7 24 13 NW 1017,0 10 0,0
14.07.2018 10:00:00 26,0 22,0 22 12 NNW - 10 -
14.07.2018 09:00:00 26,0 21,0 21 11 NW - 10 -
14.07.2018 08:00:00 25,8 20,8 21 11 NW 1016,1 10 -
14.07.2018 07:00:00 25,0 21,0 13 7 NNW - 10 -
14.07.2018 06:00:00 24,0 22,0 13 7 NNW - 10 -
14.07.2018 05:00:00 24,4 20,6 16 9 NW 1015,7 10 0,0
14.07.2018 04:00:00 25,0 20,0 21 11 NW - 10 -
14.07.2018 03:00:00 25,0 18,0 21 11 NW - 10 -
14.07.2018 02:00:00 24,7 19,0 9 5 W 1015,7 10 -
14.07.2018 01:00:00 24,0 19,0 11 6 W - 10 -
14.07.2018 00:00:00 25,0 19,0 9 5 W - 10 -
13.07.2018 23:00:00 24,4 18,6 8 4 WNW 1016,7 25 0,0
13.07.2018 22:00:00 25,0 22,0 11 6 NW - 10 -
13.07.2018 21:00:00 25,0 22,0 11 6 NW - 10 -
13.07.2018 20:00:00 25,6 21,4 13 7 WNW 1015,4 10 -
13.07.2018 19:00:00 26,0 22,0 11 6 NNW - 10 -
13.07.2018 18:00:00 27,0 21,0 11 6 NNW - 10 -
13.07.2018 17:00:00 26,4 22,1 16 9 N 1015,6 10 0,0
13.07.2018 16:00:00 27,0 22,0 21 11 N - 10 -
13.07.2018 15:00:00 26,0 22,0 21 11 N - 10 -
13.07.2018 14:00:00 27,2 22,0 18 10 NNW 1016,6 10 -
13.07.2018 13:00:00 26,0 22,0 21 11 N - 10 -
13.07.2018 12:00:00 26,0 22,0 18 10 NNW - 10 -
13.07.2018 11:00:00 26,5 21,6 18 10 NW 1016,8 10 0,0
13.07.2018 10:00:00 26,0 21,0 18 10 NW - 10 -
13.07.2018 09:00:00 26,0 22,0 16 9 NNW - 10 -
13.07.2018 08:00:00 25,3 22,2 13 7 NW 1015,9 10 -
13.07.2018 07:00:00 24,0 21,0 5 3 WNW - 10 -
13.07.2018 06:00:00 22,0 18,0 5 3 WSW - 10 -
13.07.2018 05:00:00 21,3 16,8 11 6 WNW 1015,2 10 0,0
13.07.2018 04:00:00 23,0 17,0 4 2 W - 10 -
13.07.2018 03:00:00 24,0 18,0 8 4 SSW - 10 -
13.07.2018 02:00:00 23,5 19,2 9 5 SW 1015,1 10 -
13.07.2018 01:00:00 24,0 19,0 5 3 W - 10 -
13.07.2018 00:00:00 25,0 20,0 4 2 ESE - 10 -
12.07.2018 23:00:00 24,9 21,0 4 2 E 1015,1 10 0,0
12.07.2018 22:00:00 26,0 20,0 5 3 E - 10 -
12.07.2018 21:00:00 26,0 18,0 5 3 SE - 10 -
12.07.2018 20:00:00 26,4 19,7 8 4 E 1014,4 10 -
12.07.2018 19:00:00 27,0 20,0 9 5 E - 10 -
12.07.2018 18:00:00 27,0 20,0 11 6 E - 10 -
12.07.2018 17:00:00 27,0 20,8 13 7 NE 1014,5 10 0,0
12.07.2018 16:00:00 27,0 21,0 16 9 ENE - 10 -
12.07.2018 15:00:00 27,0 23,0 15 8 ENE - 10 -
12.07.2018 14:00:00 27,0 22,4 15 8 NE 1015,0 10 -
12.07.2018 13:00:00 27,0 22,0 16 9 ENE - 10 -
12.07.2018 12:00:00 27,0 21,0 21 11 ENE - 10 -
12.07.2018 11:00:00 26,1 21,6 13 7 ENE 1014,8 10 0,0
12.07.2018 10:00:00 28,0 20,0 9 5 ENE - 10 -
12.07.2018 09:00:00 27,0 20,0 4 2 - - 10 -
12.07.2018 08:00:00 25,1 19,8 5 3 S 1014,4 10 -
12.07.2018 07:00:00 23,0 18,0 8 4 S - 10 -
12.07.2018 06:00:00 - - - - - - - -
12.07.2018 05:00:00 - - - - - - - -
12.07.2018 04:00:00 - - - - - - - -
12.07.2018 03:00:00 22,0 20,0 8 4 SSE - 10 -
12.07.2018 02:00:00 23,4 20,7 5 3 SSE 1013,5 - -
12.07.2018 01:00:00 24,0 21,0 15 8 SW - 10 -
12.07.2018 00:00:00 25,0 20,0 15 8 SSW - 10 -
11.07.2018 23:00:00 25,1 20,2 18 10 SSW 1013,6 10 0,0
11.07.2018 22:00:00 26,0 19,0 18 10 SSW - 10 -
11.07.2018 21:00:00 27,0 19,0 16 9 SSW - 10 -
11.07.2018 20:00:00 27,7 18,5 13 7 SE 1012,7 10 -
11.07.2018 19:00:00 28,0 15,0 11 6 SE - 10 -
11.07.2018 18:00:00 27,0 17,0 18 10 ESE - 10 -
11.07.2018 17:00:00 27,3 17,3 18 10 ESE 1012,5 10 0,0
11.07.2018 16:00:00 27,0 17,0 21 11 ESE - 10 -
11.07.2018 15:00:00 27,0 17,0 18 10 E - 10 -
11.07.2018 14:00:00 26,8 17,3 21 11 E 1013,1 10 -
11.07.2018 13:00:00 26,0 19,0 21 11 E - 10 -
11.07.2018 12:00:00 26,0 18,0 18 10 E - 10 -
11.07.2018 11:00:00 26,0 18,8 15 8 E 1013,9 10 0,0
11.07.2018 10:00:00 26,0 19,0 11 6 E - 10 -
11.07.2018 09:00:00 25,0 19,0 9 5 SE - 10 -
11.07.2018 08:00:00 23,6 18,5 5 3 SSE 1013,6 10 -
11.07.2018 07:00:00 20,0 17,0 9 5 SW - 10 -
11.07.2018 06:00:00 19,0 16,0 11 6 SW - 10 -
11.07.2018 05:00:00 19,0 16,3 8 4 SW 1013,0 10 0,0
11.07.2018 04:00:00 - - - - - - - -
11.07.2018 03:00:00 20,0 17,0 5 3 WSW - 10 -
11.07.2018 02:00:00 21,0 17,7 2 1 - 1013,6 10 -
11.07.2018 01:00:00 22,0 18,0 2 1 - - 10 -
11.07.2018 00:00:00 22,0 18,0 2 1 - - 10 -
10.07.2018 23:00:00 22,8 18,1 2 1 - 1013,9 10 0,0
10.07.2018 22:00:00 23,0 18,0 4 2 W - 10 -
10.07.2018 21:00:00 24,0 18,0 5 3 WNW - 10 -
10.07.2018 20:00:00 24,0 18,4 9 5 N 1013,1 10 -
10.07.2018 19:00:00 25,0 19,0 16 9 N - 10 -
10.07.2018 18:00:00 25,0 19,0 16 9 NW - 10 -

tt = temperature
td = dewpoint
ff = wind speed
dd = wind direction
ppp = reduced air pressure
vv = visibility
rr = precipitation

Next stations